Location: Frankfurt am Main
(50.1109°N, 8.6821°E)
Time: 14:02:19
(UTC+02:00)

Tiangong - Visible Passes

Search period start: 23 October 2021 00:00
Search period end: 01 November 2021 23:00
Orbit: 381 x 390 km, 41.5° (Epoch: 23 October)

Date Brightness Start Highest point End Pass type
(mag) Time Alt. Az. Time Alt. Az. Time Alt. Az.
23 Oct 3.2 19:45:42 10° SW 19:47:57 18° S 19:49:05 15° SSE visible
24 Oct 3.4 18:46:39 10° SW 18:48:49 17° S 18:50:58 10° SE visible
24 Oct 3.5 20:23:01 10° SW 20:24:45 15° SSW 20:24:45 15° SSW visible
25 Oct 3.4 19:23:39 10° SW 19:25:51 17° S 19:28:02 10° SE visible
26 Oct 3.8 20:01:21 10° SW 20:02:49 13° SSW 20:03:54 11° S visible
27 Oct 3.7 19:01:42 10° SW 19:03:39 15° S 19:05:37 10° SSE visible
29 Oct 4.0 18:39:58 10° SW 18:41:23 12° SSW 18:42:47 10° S visible
